Wind_Speed
6 7 17 24 22 18 29 29 25 24 25 23 23 21 24 24 22 20 21 20 22 18 18 16 15 15 15 16 15 13 13 13 13
6 7 15 14 17 14 22 22 23 24 24 23 22 23 25 19 28 24 21 21 21 24 22 18 17 17 17 17 16 17 17 15 15
4 9 7 12 14 19 17 21 20 21 22 22 22 23 19 15 21 23 21 21 24 23 23 23 20 21 21 19 18 17 16 17 17
4 7 8 14 17 19 19 18 21 19 22 21 21 21 19 18 18 18 18 17 22 19 23 23 22 23 24 23 20 19 18 18 17
5 3 3 7 15 19 20 19 20 23 22 23 22 22 21 19 19 20 19 18 19 20 17 14 16 29 27 24 22 20 20 18 18
7 3 3 2 11 13 18 15 17 27 30 25 24 23 22 19 20 22 20 20 19 18 18 16 18 21 30 28 24 23 22 20 19
8 6 4 1 1 4 10 8 12 19 21 22 21 20 20 19 20 21 21 21 18 19 18 18 12 13 13 28 27 25 23 22 19
8 7 8 7 4 7 4 5 7 8 11 16 17 17 17 17 16 16 17 20 19 18 17 17 17 18 12 5 16 29 27 22 23
8 9 9 10 10 8 7 9 10 10 12 17 18 17 16 15 15 14 14 15 16 16 16 15 16 15 14 12 12 10 16 22 25
10 10 10 10 11 12 13 12 12 10 10 16 24 21 18 16 14 13 14 14 16 16 17 17 16 17 15 15 15 17 17 18 17
13 12 11 12 11 12 12 13 12 10 7 6 24 24 22 18 16 14 15 15 16 17 17 18 18 17 16 14 16 17 18 19 20
14 14 13 13 12 12 11 10 10 10 9 7 18 26 24 22 24 24 22 21 20 19 20 20 19 17 18 17 16 17 16 17 18
17 16 16 16 16 16 15 14 13 13 12 12 13 20 22 21 21 22 22 22 22 22 21 21 21 20 20 20 19 18 18 19 19
20 20 19 20 21 21 21 20 19 18 18 19 18 19 20 21 23 24 23 24 25 24 25 25 25 24 24 24 24 23 22 22 23
22 23 24 24 25 25 25 25 24 23 24 23 24 24 25 25 26 26 25 26 25 24 25 25 26 27 28 27 28 28 28 29 28
26 27 27 28 28 28 28 27 27 26 27 27 28 27 29 30 30 30 30 30 29 29 29 29 29 29 28 27 28 27 27 28 28
30 29 29 28 28 28 28 27 26 26 26 27 28 28 29 29 31 32 33 33 33 33 33 34 34 33 33 32 32 32 31 32 31
31 31 30 30 30 30 30 30 30 29 30 31 31 31 31 32 32 32 33 33 33 34 35 36 36 37 37 37 37 37 36 36 36
34 34 34 34 34 34 34 34 33 34 34 34 34 35 35 36 36 35 36 36 37 37 38 38 39 38 38 38 39 39 39 40 40
36 36 36 36 36 36 36 36 37 37 38 38 38 38 38 38 39 39 39 39 40 40 41 42 41 42 42 42 42 42 42 42 42
Wind_Direction
232 239 239 249 269 264 228 210 212 217 220 218 223 225 223 226 224 229 223 220 208 211 210 210 215 219 219 232 228 230 233 226 224
279 269 249 250 245 237 205 206 218 219 222 213 218 224 235 248 218 224 230 235 225 218 221 217 219 226 227 220 221 222 223 225 228
224 193 218 206 209 201 204 206 216 216 216 216 217 228 236 220 218 226 232 235 235 220 219 222 222 224 225 221 220 222 225 226 228
340 231 162 190 202 200 206 204 211 213 218 217 222 223 228 222 220 224 226 228 224 220 226 233 234 228 222 224 223 227 227 230 234
90 208 92 191 204 197 199 201 212 214 219 221 225 228 229 221 220 228 224 223 224 236 250 254 262 240 227 229 231 230 233 241 243
139 102 43 19 194 197 192 206 217 224 221 219 226 225 224 221 220 225 230 233 230 235 248 259 266 255 241 227 229 233 235 239 246
162 162 160 29 104 120 170 166 201 205 207 214 216 218 218 218 221 224 223 237 238 239 246 251 248 227 255 240 230 235 239 243 244
195 191 196 199 232 165 204 188 200 210 220 210 211 214 216 217 218 221 228 239 243 248 253 263 261 254 235 235 238 241 237 247 253
222 217 215 214 203 208 212 226 225 232 244 230 219 219 218 217 220 224 231 233 238 244 248 255 265 267 275 288 289 277 256 251 251
230 230 228 218 216 203 202 220 239 245 258 244 220 218 215 213 217 220 231 239 245 248 252 256 262 264 265 260 256 257 255 257 258
239 237 231 231 222 221 208 205 218 229 259 250 210 214 218 218 236 243 250 249 251 253 255 257 258 258 264 267 263 259 257 258 262
244 247 247 247 249 250 251 244 249 251 250 236 215 222 229 241 248 252 245 249 255 255 252 251 254 251 251 255 260 262 266 266 264
246 247 248 251 255 257 255 256 257 261 261 257 248 231 234 238 240 242 246 247 249 252 253 253 253 254 254 256 259 260 259 260 262
248 252 253 255 255 256 257 258 257 254 252 251 250 250 253 255 255 253 253 255 255 255 255 256 257 258 258 258 259 259 256 257 258
251 254 256 255 255 256 256 258 258 257 255 251 248 250 251 252 255 258 261 262 262 261 262 260 259 260 260 262 263 262 262 260 258
255 256 257 258 257 257 258 257 258 257 257 257 256 255 254 254 254 255 256 258 260 261 262 263 263 264 264 264 264 264 264 263 262
256 257 257 258 259 260 260 259 257 257 257 258 258 257 258 257 258 258 258 259 259 259 259 259 259 259 260 261 263 264 265 265 266
254 255 256 258 259 260 261 262 262 261 260 260 260 260 259 258 258 257 259 261 261 262 262 262 263 262 263 263 262 262 263 264 263
253 255 257 257 258 259 260 260 261 262 262 262 263 263 262 264 263 261 262 262 262 262 262 262 262 264 264 264 264 264 265 264 264
255 256 256 257 258 259 259 260 260 260 261 262 261 261 262 263 264 266 266 263 263 264 263 263 264 264 264 264 265 265 264 264 264
Height
5828 5828 5829 5830 5831 5829 5833 5838 5842 5844 5847 5850 5852 5854 5855 5856 5858 5859 5860 5861 5861 5863 5864 5864 5865 5867 5867 5868 5869 5869 5870 5870 5870
5825 5825 5826 5828 5829 5829 5832 5836 5840 5842 5845 5847 5849 5851 5852 5853 5855 5857 5858 5860 5860 5861 5863 5863 5864 5865 5866 5866 5867 5868 5868 5868 5869
5825 5825 5823 5824 5827 5829 5831 5834 5838 5840 5843 5845 5846 5849 5850 5850 5853 5855 5855 5857 5857 5859 5860 5861 5861 5862 5864 5864 5865 5866 5866 5867 5867
5824 5823 5823 5823 5824 5826 5829 5832 5836 5838 5841 5842 5844 5846 5847 5849 5851 5852 5853 5855 5856 5855 5858 5859 5858 5859 5860 5861 5862 5863 5864 5865 5866
5825 5824 5824 5824 5825 5825 5827 5828 5832 5835 5838 5840 5841 5843 5844 5846 5847 5849 5851 5853 5854 5854 5854 5855 5855 5853 5855 5857 5858 5860 5861 5863 5863
5825 5824 5824 5825 5825 5826 5825 5826 5828 5831 5834 5837 5839 5840 5841 5843 5845 5846 5848 5850 5852 5852 5852 5853 5853 5851 5850 5852 5854 5856 5858 5859 5860
5824 5824 5825 5826 5826 5825 5825 5825 5827 5829 5831 5834 5836 5838 5839 5840 5842 5843 5845 5846 5849 5850 5850 5850 5849 5850 5849 5849 5851 5854 5855 5856 5857
5823 5824 5825 5826 5826 5827 5828 5828 5829 5830 5831 5832 5834 5835 5837 5838 5840 5841 5842 5843 5846 5847 5848 5847 5845 5844 5846 5847 5848 5850 5851 5853 5855
5821 5823 5824 5825 5826 5825 5827 5828 5829 5829 5829 5829 5831 5833 5835 5836 5837 5838 5840 5841 5842 5844 5845 5845 5845 5844 5844 5844 5845 5847 5849 5850 5851
5820 5821 5823 5824 5825 5825 5825 5826 5827 5826 5826 5825 5828 5830 5832 5834 5835 5836 5838 5839 5839 5840 5841 5841 5842 5842 5842 5842 5843 5844 5845 5846 5847
5818 5819 5820 5822 5823 5824 5824 5824 5825 5825 5824 5823 5824 5827 5830 5831 5833 5834 5835 5835 5836 5837 5837 5838 5839 5839 5840 5840 5840 5841 5842 5843 5844
5815 5817 5818 5819 5820 5821 5822 5823 5824 5824 5824 5822 5823 5826 5829 5830 5831 5831 5831 5832 5833 5834 5835 5836 5837 5837 5838 5837 5837 5838 5839 5840 5841
5811 5813 5814 5815 5816 5817 5819 5820 5820 5821 5821 5821 5823 5824 5824 5825 5826 5826 5827 5828 5829 5829 5831 5833 5833 5833 5834 5834 5835 5836 5836 5837 5837
5807 5808 5810 5812 5813 5814 5815 5816 5817 5818 5819 5820 5820 5821 5821 5822 5823 5823 5823 5825 5825 5826 5827 5828 5828 5829 5829 5830 5831 5832 5833 5833 5834
5802 5803 5805 5807 5808 5809 5811 5812 5813 5814 5814 5815 5814 5815 5816 5817 5818 5819 5818 5820 5821 5821 5822 5823 5823 5824 5824 5824 5825 5826 5827 5828 5828
5797 5798 5800 5801 5803 5804 5805 5806 5807 5808 5808 5808 5809 5810 5811 5811 5811 5812 5813 5814 5814 5815 5816 5817 5817 5817 5818 5818 5819 5820 5820 5821 5822
5792 5793 5794 5795 5796 5797 5798 5800 5801 5801 5802 5802 5802 5803 5804 5804 5805 5805 5806 5806 5807 5807 5808 5808 5809 5809 5810 5810 5811 5813 5813 5815 5815
5785 5787 5788 5789 5790 5791 5792 5792 5793 5794 5795 5795 5795 5796 5797 5797 5798 5799 5798 5798 5799 5799 5800 5800 5800 5802 5801 5802 5803 5804 5804 5806 5807
5778 5779 5780 5781 5782 5783 5784 5785 5785 5786 5787 5788 5788 5788 5789 5788 5790 5790 5790 5790 5791 5791 5791 5792 5793 5793 5793 5794 5795 5795 5795 5797 5797
5769 5770 5772 5773 5773 5774 5775 5776 5777 5778 5778 5778 5779 5779 5780 5780 5780 5780 5780 5780 5781 5781 5781 5782 5783 5783 5784 5785 5785 5786 5787 5788 5788